Location: Nelson
(41.2830°S, 173.2830°E)
Time: 05:34:10
(UTC+13:00)

Radarsat Rocket - Visible Passes

Search period start: 27 September 2021 00:00
Search period end: 07 October 2021 00:00
Orbit: 933 x 1492 km, 100.6° (Epoch: 25 September)

Date Brightness Start Highest point End Pass type
(mag) Time Alt. Az. Time Alt. Az. Time Alt. Az.
27 Sep 7.1 05:09:48 10° ENE 05:16:10 24° SE 05:22:24 10° S visible
27 Sep 4.4 20:14:07 10° SSE 20:21:30 87° WSW 20:27:56 10° NNW visible
27 Sep 6.9 22:03:38 10° SSW 22:08:13 18° SW 22:12:29 10° W visible
28 Sep 7.3 04:57:44 10° E 05:03:25 20° SE 05:08:58 10° S visible
28 Sep 4.3 20:01:06 10° SSE 20:08:25 77° ENE 20:14:46 10° NNW visible
28 Sep 6.7 21:50:13 10° S 21:55:25 21° SW 22:00:12 10° W visible
29 Sep 7.4 04:45:50 10° E 04:50:40 17° SE 04:55:25 10° SSE visible
29 Sep 5.5 06:28:31 10° NNE 06:37:04 66° ESE 06:45:25 10° S visible
29 Sep 4.3 19:48:09 10° SSE 19:55:17 62° ENE 20:01:31 10° N visible
29 Sep 6.4 21:36:53 10° S 21:42:34 26° SW 21:47:46 10° WNW visible
30 Sep 7.5 04:34:12 10° ESE 04:37:58 14° SE 04:41:38 10° SSE visible
30 Sep 5.8 06:15:46 10° NE 06:24:09 56° ESE 06:32:17 10° S visible
30 Sep 6.1 21:23:35 10° S 21:29:42 31° WSW 21:35:12 10° WNW visible
01 Oct 7.7 04:23:09 10° ESE 04:25:16 11° SE 04:27:22 10° SSE visible
01 Oct 6.1 06:03:06 10° NE 06:11:15 47° ESE 06:19:06 10° S visible
01 Oct 5.8 21:10:22 10° S 21:16:47 37° WSW 21:22:32 10° NW visible
02 Oct 6.3 05:50:32 10° NE 05:58:22 40° ESE 06:05:53 10° S visible
02 Oct 5.4 20:57:11 10° S 21:03:51 45° WSW 21:09:46 10° NW visible
03 Oct 6.6 05:38:04 10° ENE 05:45:30 34° ESE 05:52:37 10° S visible
03 Oct 5.0 20:44:02 10° S 20:50:51 55° WSW 20:56:54 10° NW visible
03 Oct 7.4 22:35:53 10° SW 22:37:02 10° SW 22:38:10 10° SW visible
04 Oct 6.9 05:25:43 10° ENE 05:32:40 28° ESE 05:39:18 10° S visible
04 Oct 4.6 20:30:55 10° SSE 20:37:50 68° WSW 20:43:56 10° NNW visible
04 Oct 7.2 22:21:27 10° SSW 22:24:17 13° SW 22:27:00 10° WSW visible
05 Oct 7.1 05:13:29 10° ENE 05:19:51 24° SE 05:25:55 10° S visible
05 Oct 4.3 20:17:51 10° SSE 20:24:46 84° WSW 20:30:53 10° NNW visible
05 Oct 7.0 22:07:42 10° SSW 22:11:30 16° SW 22:15:05 10° W visible
06 Oct 7.3 05:01:24 10° E 05:07:03 20° SE 05:12:28 10° S visible
06 Oct 4.1 20:04:48 10° SSE 20:11:40 80° ENE 20:17:44 10° NNW visible
06 Oct 6.8 21:54:09 10° SSW 21:58:41 19° SW 22:02:54 10° W visible
